Terug naar catalogus

NIMBUS 2 DEB

ActiefLEO
NORAD 28208·DEBRIS·🇺🇸 United States

Gelanceerd May 15, 1966 vanaf Vandenberg Space Force Base

Loading…

Volgende Passages (komende 24 uur)

TLE

VersSource: Space-Track

Epoch: Sep 14, 2026, 13:40 UTC

1 28208U 66040W   26257.56969142  .00001392  00000-0  17288-2 0  9993
2 28208 100.3166 299.5614 0040519  21.2492 137.7468 13.66516847267282

Volg NIMBUS 2 DEB in realtime met AllMySat

Download on the App Store